Location: Bailleul
(50.3375°N, 2.8513°E)
Time: 16:48:48
(UTC+00:00)

Cosmos 2016 Rocket - Pass Details

Date: 29 October 2021
Orbit: 946 x 1001 km, 83.0° (Epoch: 26 November)

Event Time Altitude Azimuth Distance (km) Brightness Sun altitude
Rises 05:56:35 0° 351° (N) 3,630 6.8 -6.6°
Reaches altitude 10° 05:59:05 10° 353° (N) 2,681 6.1 -6.2°
Maximum altitude 06:05:13 76° 79° (E) 984 4.3 -5.2°
Drops below altitude 10° 06:11:21 10° 165° (SSE) 2,681 6.8 -4.3°
Sets 06:13:51 0° 167° (SSE) 3,629 7.4 -3.9°
